EW4883 Weather Reports


Display with metric or nautical units.
time (UTC)temp
F
wind
direction
speed
MPH
gust
MPH
rain 1hr
in
rain 24hr
in
rain mn
in
humidity
%
barometer
mb
20260510061556 85 360 7.0 17.0 0.00 0.00 0.00 12 1012.1
20260510061057 85 360 8.0 17.0 0.00 0.00 0.00 12 1012.1
20260510060557 85 360 8.0 16.0 0.00 0.00 0.00 12 1012.0
20260510060053 85 360 7.0 16.0 0.00 0.00 0.00 12 1012.1
20260510055554 86 360 8.0 14.0 0.00 0.00 0.00 12 1012.0
20260510055053 85 360 7.0 15.0 0.00 0.00 0.00 12 1012.0
20260510054552 85 360 6.0 15.0 0.00 0.00 0.00 11 1011.9
20260510054052 85 360 7.0 15.0 0.00 0.00 0.00 11 1011.8
20260510053553 85 360 4.0 10.0 0.00 0.00 0.00 11 1011.8
20260510053050 85 360 6.0 10.0 0.00 0.00 0.00 11 1011.8
20260510052554 85 360 4.0 9.0 0.00 0.00 0.00 12 1011.7
20260510052053 85 360 3.0 9.0 0.00 0.00 0.00 12 1011.6
20260510051601 85 360 4.0 8.0 0.00 0.00 0.00 12 1011.5
20260510051054 84 360 3.0 8.0 0.00 0.00 0.00 12 1011.5
20260510050557 84 360 3.0 8.0 0.00 0.00 0.00 12 1011.5
20260510050059 85 360 3.0 8.0 0.00 0.00 0.00 12 1011.4
20260510045554 84 360 3.0 8.0 0.00 0.00 0.00 12 1011.4
20260510045054 84 360 3.0 6.0 0.00 0.00 0.00 13 1011.4
20260510044604 85 360 3.0 6.0 0.00 0.00 0.00 13 1011.3
20260510044053 85 360 3.0 8.0 0.00 0.00 0.00 13 1011.2
20260510043548 85 360 2.0 8.0 0.00 0.00 0.00 13 1011.2
20260510043056 85 360 2.0 8.0 0.00 0.00 0.00 12 1011.2
20260510042550 85 360 2.0 5.0 0.00 0.00 0.00 12 1011.1
20260510042048 85 360 2.0 6.0 0.00 0.00 0.00 12 1011.1
20260510041604 85 360 3.0 6.0 0.00 0.00 0.00 12 1010.9
20260510041051 86 360 3.0 6.0 0.00 0.00 0.00 12 1010.8
20260510040549 86 360 2.0 6.0 0.00 0.00 0.00 12 1010.8
20260510040052 86 360 3.0 6.0 0.00 0.00 0.00 12 1010.8
20260510035551 86 360 3.0 5.0 0.00 0.00 0.00 12 1010.7
20260510035049 86 360 2.0 5.0 0.00 0.00 0.00 12 1010.6
20260510034603 86 360 3.0 5.0 0.00 0.00 0.00 12 1010.6
20260510034054 86 360 3.0 5.0 0.00 0.00 0.00 11 1010.4
20260510033551 86 360 2.0 5.0 0.00 0.00 0.00 11 1010.4
20260510033054 86 360 2.0 6.0 0.00 0.00 0.00 11 1010.4
20260510032551 87 360 3.0 6.0 0.00 0.00 0.00 11 1010.3
20260510032051 87 360 4.0 8.0 0.00 0.00 0.00 11 1010.3
20260510031606 87 360 3.0 8.0 0.00 0.00 0.00 11 1010.2
20260510031053 87 360 3.0 6.0 0.00 0.00 0.00 11 1010.1
20260510030548 86 360 3.0 4.0 0.00 0.00 0.00 11 1010.1
20260510030057 87 360 2.0 4.0 0.00 0.00 0.00 11 1010.1
20260510025551 87 360 2.0 4.0 0.00 0.00 0.00 11 1009.9
20260510025050 87 360 2.0 4.0 0.00 0.00 0.00 11 1009.9
20260510024555 87 360 2.0 3.0 0.00 0.00 0.00 11 1009.8
20260510024048 88 360 1.0 3.0 0.00 0.00 0.00 11 1009.7
20260510023551 88 360 1.0 3.0 0.00 0.00 0.00 10 1009.6
20260510023053 88 360 1.0 3.0 0.00 0.00 0.00 10 1009.6
20260510022550 89 360 0.0 2.0 0.00 0.00 0.00 11 1009.5
20260510022051 90 0 0.0 3.0 0.00 0.00 0.00 10 1009.5
20260510021550 90 0 0.0 4.0 0.00 0.00 0.00 10 1009.5
20260510021048 91 360 1.0 6.0 0.00 0.00 0.00 9 1009.4
20260510020548 91 360 1.0 6.0 0.00 0.00 0.00 9 1009.4
20260510020055 92 360 0.0 6.0 0.00 0.00 0.00 9 1009.4
20260510015552 92 360 2.0 6.0 0.00 0.00 0.00 9 1009.4
20260510015052 93 317 2.0 5.0 0.00 0.00 0.00 9 1009.3
20260510014600 93 277 1.0 8.0 0.00 0.00 0.00 9 1009.3
20260510014052 94 297 2.0 8.0 0.00 0.00 0.00 8 1009.3
20260510013551 94 291 3.0 8.0 0.00 0.00 0.00 8 1009.3
20260510013102 94 302 1.0 7.0 0.00 0.00 0.00 8 1009.3
20260510012551 94 283 2.0 7.0 0.00 0.00 0.00 8 1009.2
20260510012048 94 288 2.0 13.0 0.00 0.00 0.00 8 1009.2
20260510011549 95 307 5.0 13.0 0.00 0.00 0.00 8 1009.2
20260510011051 95 304 4.0 12.0 0.00 0.00 0.00 8 1009.2
20260510010551 95 308 4.0 12.0 0.00 0.00 0.00 8 1009.2
20260510010052 95 333 5.0 12.0 0.00 0.00 0.00 8 1009.3
20260510005551 96 265 4.0 9.0 0.00 0.00 0.00 8 1009.3
20260510005052 96 328 3.0 9.0 0.00 0.00 0.00 8 1009.2
20260510004550 96 267 4.0 9.0 0.00 0.00 0.00 8 1009.2
20260510004051 96 339 3.0 10.0 0.00 0.00 0.00 8 1009.3
20260510003556 96 342 4.0 10.0 0.00 0.00 0.00 8 1009.3
20260510003057 96 321 2.0 13.0 0.00 0.00 0.00 8 1009.3
20260510002549 96 333 4.0 13.0 0.00 0.00 0.00 8 1009.3
20260510002048 96 246 7.0 13.0 0.00 0.00 0.00 7 1009.4
20260510001554 97 252 5.0 13.0 0.00 0.00 0.00 7 1009.4
20260510001053 97 279 7.0 13.0 0.00 0.00 0.00 7 1009.4
20260510000549 97 360 4.0 12.0 0.00 0.00 0.00 8 1009.3
20260510000104 97 266 5.0 12.0 0.00 0.00 0.00 8 1009.4
20260509235551 97 263 4.0 13.0 0.00 0.00 0.00 7 1009.5
20260509235051 97 218 5.0 14.0 0.00 0.00 0.00 8 1009.4
20260509234603 97 254 6.0 14.0 0.00 0.00 0.00 7 1009.4
20260509234051 96 293 7.0 14.0 0.00 0.00 0.00 8 1009.5
20260509233552 97 281 6.0 14.0 0.00 0.00 0.00 7 1009.5
20260509233055 97 256 4.0 14.0 0.00 0.00 0.00 8 1009.6
20260509232548 97 227 5.0 11.0 0.00 0.00 0.00 7 1009.7
20260509232048 97 304 4.0 10.0 0.00 0.00 0.00 8 1009.7
20260509231607 97 263 4.0 15.0 0.00 0.00 0.00 8 1009.7
20260509231050 97 336 7.0 15.0 0.00 0.00 0.00 8 1009.7
20260509230552 97 24 4.0 12.0 0.00 0.00 0.00 8 1009.8
20260509230103 97 275 3.0 10.0 0.00 0.00 0.00 8 1009.9
20260509225551 97 72 1.0 7.0 0.00 0.00 0.00 8 1009.8
20260509225055 97 0 1.0 13.0 0.00 0.00 0.00 8 1010.0
20260509224557 97 247 4.0 15.0 0.00 0.00 0.00 8 1010.0
20260509224055 97 281 8.0 16.0 0.00 0.00 0.00 8 1010.2
20260509223552 97 248 9.0 17.0 0.00 0.00 0.00 8 1010.1
20260509223055 97 309 7.0 17.0 0.00 0.00 0.00 8 1010.2
20260509222552 97 246 3.0 15.0 0.00 0.00 0.00 8 1010.3
20260509222051 97 259 8.0 15.0 0.00 0.00 0.00 8 1010.3
20260509221554 97 287 4.0 10.0 0.00 0.00 0.00 8 1010.3
20260509221054 97 250 6.0 12.0 0.00 0.00 0.00 8 1010.3
20260509220553 97 298 2.0 12.0 0.00 0.00 0.00 8 1010.4
20260509220053 97 284 4.0 11.0 0.00 0.00 0.00 8 1010.6
20260509215553 97 360 6.0 12.0 0.00 0.00 0.00 8 1010.7
20260509215053 96 297 5.0 12.0 0.00 0.00 0.00 8 1010.7
20260509214552 97 352 4.0 12.0 0.00 0.00 0.00 8 1010.8
20260509214053 96 282 6.0 12.0 0.00 0.00 0.00 9 1011.0
20260509213553 96 9 0.0 6.0 0.00 0.00 0.00 9 1011.0
20260509213054 96 271 2.0 12.0 0.00 0.00 0.00 8 1011.1
20260509212553 96 5 3.0 12.0 0.00 0.00 0.00 9 1011.2
20260509212053 96 5 5.0 12.0 0.00 0.00 0.00 8 1011.3
20260509211559 95 14 5.0 12.0 0.00 0.00 0.00 9 1011.3
20260509211053 96 243 7.0 11.0 0.00 0.00 0.00 9 1011.4
20260509210557 95 254 4.0 11.0 0.00 0.00 0.00 9 1011.5
20260509210107 96 250 2.0 11.0 0.00 0.00 0.00 9 1011.6
20260509205556 96 242 4.0 10.0 0.00 0.00 0.00 9 1011.7
20260509205053 96 227 3.0 9.0 0.00 0.00 0.00 9 1011.8
20260509204553 95 0 2.0 8.0 0.00 0.00 0.00 9 1011.8
20260509204053 94 5 1.0 13.0 0.00 0.00 0.00 9 1012.0
20260509203555 95 236 6.0 13.0 0.00 0.00 0.00 9 1012.1
20260509203054 95 251 2.0 11.0 0.00 0.00 0.00 9 1012.1
20260509202557 95 288 6.0 11.0 0.00 0.00 0.00 9 1012.1
20260509202053 95 282 5.0 11.0 0.00 0.00 0.00 9 1012.1
20260509201602 95 261 6.0 11.0 0.00 0.00 0.00 9 1012.1
20260509201052 95 284 3.0 15.0 0.00 0.00 0.00 9 1012.3
20260509200553 94 327 4.0 15.0 0.00 0.00 0.00 9 1012.4
20260509200106 94 273 5.0 15.0 0.00 0.00 0.00 9 1012.5
20260509195557 94 244 5.0 12.0 0.00 0.00 0.00 9 1012.5
20260509195056 94 237 3.0 12.0 0.00 0.00 0.00 9 1012.5
20260509194600 94 297 4.0 12.0 0.00 0.00 0.00 10 1012.5
20260509194057 93 11 5.0 12.0 0.00 0.00 0.00 9 1012.7
20260509193552 94 268 5.0 11.0 0.00 0.00 0.00 10 1012.7
20260509193102 93 24 3.0 12.0 0.00 0.00 0.00 10 1012.6
20260509192556 93 259 7.0 12.0 0.00 0.00 0.00 10 1012.7
20260509192053 93 276 5.0 12.0 0.00 0.00 0.00 10 1012.7
20260509191555 93 331 4.0 12.0 0.00 0.00 0.00 10 1012.7
20260509191051 93 329 5.0 12.0 0.00 0.00 0.00 11 1012.8
20260509190554 92 311 0.0 12.0 0.00 0.00 0.00 11 1012.9
20260509190104 92 280 5.0 12.0 0.00 0.00 0.00 11 1013.0
20260509185552 92 242 6.0 12.0 0.00 0.00 0.00 11 1013.1
20260509185051 92 294 4.0 10.0 0.00 0.00 0.00 12 1013.2
20260509184557 92 245 2.0 11.0 0.00 0.00 0.00 12 1013.2
20260509184051 92 240 5.0 11.0 0.00 0.00 0.00 12 1013.3
20260509183549 92 259 3.0 11.0 0.00 0.00 0.00 12 1013.3
20260509183052 92 352 4.0 9.0 0.00 0.00 0.00 12 1013.4
20260509182551 92 27 2.0 9.0 0.00 0.00 0.00 12 1013.5
20260509182051 92 290 3.0 9.0 0.00 0.00 0.00 13 1013.5
20260509181550 91 28 3.0 7.0 0.00 0.00 0.00 13 1013.6
20260509181048 91 331 2.0 8.0 0.00 0.00 0.00 13 1013.8
20260509180552 91 350 2.0 8.0 0.00 0.00 0.00 14 1013.8
20260509175552 91 0 3.0 8.0 0.00 0.00 0.00 14 1013.9
20260509175048 90 276 2.0 8.0 0.00 0.00 0.00 14 1013.9
20260509174555 89 66 2.0 5.0 0.00 0.00 0.00 14 1013.9
20260509174053 89 15 3.0 7.0 0.00 0.00 0.00 15 1014.0
20260509173552 88 9 3.0 7.0 0.00 0.00 0.00 15 1013.9
20260509173057 88 57 3.0 6.0 0.00 0.00 0.00 15 1014.0
20260509172551 88 320 1.0 6.0 0.00 0.00 0.00 16 1014.0
20260509172052 88 315 1.0 5.0 0.00 0.00 0.00 16 1014.0
20260509171551 88 0 2.0 9.0 0.00 0.00 0.00 16 1014.0
20260509171054 87 317 2.0 9.0 0.00 0.00 0.00 16 1014.1
20260509170548 87 360 1.0 8.0 0.00 0.00 0.00 16 1014.1
20260509170101 87 65 3.0 8.0 0.00 0.00 0.00 16 1014.1
20260509165555 86 360 2.0 6.0 0.00 0.00 0.00 17 1014.1
20260509165052 86 69 2.0 5.0 0.00 0.00 0.00 17 1014.0
20260509164553 86 69 3.0 5.0 0.00 0.00 0.00 17 1014.0
20260509164055 86 69 2.0 5.0 0.00 0.00 0.00 17 1014.1
20260509163552 86 360 1.0 5.0 0.00 0.00 0.00 18 1014.1
20260509163102 85 360 1.0 5.0 0.00 0.00 0.00 18 1014.1
20260509162552 84 360 1.0 5.0 0.00 0.00 0.00 18 1014.1
20260509162052 84 73 2.0 5.0 0.00 0.00 0.00 19 1014.2
20260509161557 84 74 1.0 4.0 0.00 0.00 0.00 19 1014.1
20260509161101 83 360 2.0 6.0 0.00 0.00 0.00 20 1014.1
20260509160551 82 360 1.0 6.0 0.00 0.00 0.00 20 1014.1
20260509160057 82 360 2.0 6.0 0.00 0.00 0.00 20 1014.1
20260509155552 82 360 2.0 5.0 0.00 0.00 0.00 20 1014.1
20260509155052 81 360 2.0 5.0 0.00 0.00 0.00 21 1014.1
20260509154606 81 360 2.0 5.0 0.00 0.00 0.00 21 1014.2
20260509154047 80 360 2.0 5.0 0.00 0.00 0.00 22 1014.1
20260509153551 80 360 2.0 5.0 0.00 0.00 0.00 22 1014.1
20260509153058 79 360 2.0 5.0 0.00 0.00 0.00 23 1014.1
20260509152554 78 360 3.0 5.0 0.00 0.00 0.00 23 1014.0
20260509152053 79 360 2.0 5.0 0.00 0.00 0.00 23 1014.1
20260509151605 78 360 2.0 5.0 0.00 0.00 0.00 23 1014.0
20260509151055 78 360 3.0 5.0 0.00 0.00 0.00 23 1014.0
20260509150551 78 360 2.0 5.0 0.00 0.00 0.00 24 1014.0
20260509150108 78 360 2.0 5.0 0.00 0.00 0.00 24 1014.1
20260509145552 78 360 3.0 5.0 0.00 0.00 0.00 24 1014.1
20260509145052 78 360 3.0 5.0 0.00 0.00 0.00 24 1014.0
20260509144601 78 360 2.0 5.0 0.00 0.00 0.00 24 1014.1
20260509144051 78 360 2.0 4.0 0.00 0.00 0.00 25 1014.1
20260509143551 77 360 0.0 4.0 0.00 0.00 0.00 24 1014.1
20260509143104 77 360 1.0 4.0 0.00 0.00 0.00 26 1014.0
20260509142551 77 75 1.0 3.0 0.00 0.00 0.00 25 1014.0
20260509142048 77 75 1.0 3.0 0.00 0.00 0.00 25 1013.9
20260509141554 76 0 0.0 3.0 0.00 0.00 0.00 26 1013.9
20260509141049 76 75 0.0 3.0 0.00 0.00 0.00 26 1013.9
20260509140551 76 0 0.0 0.0 0.00 0.00 0.00 27 1013.8
20260509140104 75 0 0.0 0.0 0.00 0.00 0.00 28 1013.8
20260509135552 75 0 0.0 0.0 0.00 0.00 0.00 28 1013.8
20260509135052 73 0 0.0 0.0 0.00 0.00 0.00 30 1013.7
20260509134556 72 0 0.0 0.0 0.00 0.00 0.00 30 1013.7
20260509134055 71 0 0.0 0.0 0.00 0.00 0.00 32 1013.6
20260509133551 69 0 0.0 0.0 0.00 0.00 0.00 34 1013.5
20260509133106 68 0 0.0 0.0 0.00 0.00 0.00 34 1013.5
20260509132552 67 0 0.0 0.0 0.00 0.00 0.00 36 1013.5
20260509132052 66 0 0.0 0.0 0.00 0.00 0.00 38 1013.6
20260509131555 65 0 0.0 0.0 0.00 0.00 0.00 40 1013.5
20260509131051 64 0 0.0 0.0 0.00 0.00 0.00 41 1013.5
20260509130551 63 0 0.0 0.0 0.00 0.00 0.00 41 1013.4
20260509130101 63 0 0.0 0.0 0.00 0.00 0.00 42 1013.3
20260509125551 63 0 0.0 0.0 0.00 0.00 0.00 41 1013.2
20260509125051 62 0 0.0 0.0 0.00 0.00 0.00 41 1013.2
20260509124558 62 0 0.0 0.0 0.00 0.00 0.00 42 1013.1
20260509124051 62 0 0.0 0.0 0.00 0.00 0.00 42 1013.1
20260509123552 62 0 0.0 0.0 0.00 0.00 0.00 42 1013.1
20260509123101 62 0 0.0 0.0 0.00 0.00 0.00 42 1013.1
20260509122551 62 0 0.0 0.0 0.00 0.00 0.00 42 1013.1
20260509122051 62 0 0.0 0.0 0.00 0.00 0.00 42 1013.0
20260509121559 62 0 0.0 0.0 0.00 0.00 0.00 41 1013.0
20260509121051 62 0 0.0 0.0 0.00 0.00 0.00 41 1013.0
20260509120552 63 0 0.0 0.0 0.00 0.00 0.00 40 1012.9
20260509120052 63 0 0.0 0.0 0.00 0.00 0.00 40 1012.9
20260509115554 63 0 0.0 0.0 0.00 0.00 0.00 40 1012.9
20260509115051 63 0 0.0 0.0 0.00 0.00 0.00 40 1012.9
20260509114603 64 0 0.0 0.0 0.00 0.00 0.00 40 1012.8
20260509114048 64 0 0.0 0.0 0.00 0.00 0.00 39 1012.9
20260509113556 64 0 0.0 0.0 0.00 0.00 0.00 38 1012.8
20260509113051 64 0 0.0 0.0 0.00 0.00 0.00 38 1012.8
20260509112552 65 0 0.0 0.0 0.00 0.00 0.00 38 1012.8
20260509112052 65 0 0.0 0.0 0.00 0.00 0.00 38 1012.9
20260509111554 65 0 0.0 0.0 0.00 0.00 0.00 37 1012.8
20260509111052 64 0 0.0 0.0 0.00 0.00 0.00 38 1012.8
20260509110552 64 0 0.0 0.0 0.00 0.00 0.00 38 1012.8
20260509110052 64 0 0.0 0.0 0.00 0.00 0.00 38 1012.7
20260509105554 65 0 0.0 0.0 0.00 0.00 0.00 37 1012.7
20260509105052 65 0 0.0 0.0 0.00 0.00 0.00 37 1012.7
20260509104552 65 0 0.0 0.0 0.00 0.00 0.00 37 1012.7
20260509104051 65 0 0.0 0.0 0.00 0.00 0.00 36 1012.6
20260509103551 66 0 0.0 0.0 0.00 0.00 0.00 36 1012.6
20260509103053 66 0 0.0 0.0 0.00 0.00 0.00 35 1012.7
20260509102551 67 0 0.0 0.0 0.00 0.00 0.00 34 1012.6
20260509102051 67 0 0.0 0.0 0.00 0.00 0.00 34 1012.7
20260509101554 67 0 0.0 0.0 0.00 0.00 0.00 33 1012.7
20260509101051 67 0 0.0 0.0 0.00 0.00 0.00 33 1012.7
20260509100551 67 0 0.0 0.0 0.00 0.00 0.00 33 1012.6
20260509100053 68 0 0.0 0.0 0.00 0.00 0.00 33 1012.6
20260509095551 68 0 0.0 0.0 0.00 0.00 0.00 32 1012.6
20260509095108 68 0 0.0 0.0 0.00 0.00 0.00 32 1012.7
20260509094604 68 0 0.0 0.0 0.00 0.00 0.00 32 1012.6
20260509094054 68 0 0.0 0.0 0.00 0.00 0.00 32 1012.7
20260509093553 69 0 0.0 0.0 0.00 0.00 0.00 32 1012.6
20260509093054 69 0 0.0 0.0 0.00 0.00 0.00 31 1012.6
20260509092553 69 0 0.0 0.0 0.00 0.00 0.00 31 1012.5
20260509092053 69 0 0.0 0.0 0.00 0.00 0.00 31 1012.7
20260509091601 70 0 0.0 0.0 0.00 0.00 0.00 30 1012.7
20260509091053 70 0 0.0 2.0 0.00 0.00 0.00 30 1012.6
20260509090553 70 0 0.0 2.0 0.00 0.00 0.00 30 1012.7
20260509090123 71 360 0.0 2.0 0.00 0.00 0.00 29 1012.7
20260509085554 71 360 0.0 2.0 0.00 0.00 0.00 28 1012.7
20260509085057 72 0 0.0 3.0 0.00 0.00 0.00 27 1012.7
20260509084603 72 0 0.0 3.0 0.00 0.00 0.00 27 1012.6
20260509084053 72 0 1.0 3.0 0.00 0.00 0.00 27 1012.7
20260509083551 72 360 0.0 1.0 0.00 0.00 0.00 27 1012.7
20260509083056 73 0 0.0 2.0 0.00 0.00 0.00 26 1012.7
20260509082548 74 0 0.0 2.0 0.00 0.00 0.00 25 1012.6
20260509082049 74 360 0.0 3.0 0.00 0.00 0.00 25 1012.6
20260509081553 74 0 0.0 3.0 0.00 0.00 0.00 25 1012.6
20260509081050 75 0 0.0 3.0 0.00 0.00 0.00 24 1012.5
20260509080550 76 0 0.0 3.0 0.00 0.00 0.00 23 1012.6
20260509080109 77 0 0.0 3.0 0.00 0.00 0.00 22 1012.6
20260509075550 78 360 1.0 3.0 0.00 0.00 0.00 21 1012.5
20260509075052 79 360 0.0 5.0 0.00 0.00 0.00 21 1012.5
20260509074600 80 360 1.0 5.0 0.00 0.00 0.00 20 1012.5
20260509074052 80 360 0.0 5.0 0.00 0.00 0.00 20 1012.5
20260509073552 80 0 1.0 6.0 0.00 0.00 0.00 20 1012.5
20260509073106 81 360 3.0 9.0 0.00 0.00 0.00 20 1012.6
20260509072549 81 360 3.0 9.0 0.00 0.00 0.00 20 1012.6
20260509072050 81 360 3.0 13.0 0.00 0.00 0.00 20 1012.6
20260509071603 81 360 3.0 13.0 0.00 0.00 0.00 20 1012.5
20260509071049 81 360 5.0 13.0 0.00 0.00 0.00 20 1012.6
20260509070550 81 360 4.0 12.0 0.00 0.00 0.00 20 1012.7
20260509065551 81 360 5.0 12.0 0.00 0.00 0.00 20 1012.6
20260509065049 81 360 5.0 11.0 0.00 0.00 0.00 20 1012.7
20260509064556 80 360 4.0 10.0 0.00 0.00 0.00 20 1012.7
20260509064051 79 360 3.0 10.0 0.00 0.00 0.00 21 1012.7
20260509063549 77 360 4.0 10.0 0.00 0.00 0.00 22 1012.7
20260509063107 75 360 2.0 6.0 0.00 0.00 0.00 21 1012.7
20260509062548 74 0 0.0 2.0 0.00 0.00 0.00 20 1012.7
20260509062051 73 0 0.0 0.0 0.00 0.00 0.00 21 1012.7